Theta_e
299 301 302 302 301 302 303 302 303 306 306 302 302 303 304 309 319 322 326 326 325 326 325 324 324 325 324 325 327 326 324 323 325 322 322 325 327 327 328 328 326 325 324
297 299 299 299 298 298 298 300 301 302 305 306 304 305 306 313 317 323 324 324 325 326 324 324 323 323 323 323 324 325 322 322 323 320 317 314 317 324 327 328 328 327 327
295 297 297 296 296 296 296 298 299 300 302 306 307 306 308 309 313 318 320 324 325 325 325 324 322 322 322 321 321 322 319 317 319 323 320 314 312 313 320 324 326 326 325
295 297 296 295 294 295 295 296 297 299 302 306 306 303 302 303 309 315 320 320 324 324 325 324 323 322 322 321 321 322 320 319 319 321 326 325 317 315 313 316 321 325 325
296 294 295 295 294 296 294 295 296 299 301 304 307 305 304 306 311 315 316 318 321 323 323 323 321 320 321 321 321 320 321 323 322 322 321 323 323 323 318 314 318 317 323
294 295 296 294 293 294 294 295 296 299 303 305 307 307 303 306 309 312 314 317 321 320 317 320 319 321 322 322 322 324 324 324 325 323 322 321 319 318 319 317 317 317 320
293 292 290 291 294 294 292 295 296 298 300 303 305 306 307 308 309 311 313 316 316 311 309 310 310 310 311 312 314 317 323 324 324 324 324 324 324 324 322 319 318 317 319
294 290 290 290 292 293 293 294 295 295 298 300 301 304 306 306 305 306 308 306 305 303 304 304 304 304 304 304 308 310 311 312 320 320 322 323 324 325 323 320 317 314 314
290 289 289 290 293 293 294 294 294 294 295 297 299 300 301 302 302 302 302 299 300 300 301 302 302 302 300 300 303 306 304 307 308 308 308 314 316 319 319 319 317 314 309
290 289 289 289 292 293 294 295 295 294 294 296 296 297 298 299 299 299 299 298 297 297 298 298 299 299 298 299 300 300 301 302 303 304 303 304 305 306 306 307 311 315 313
288 287 287 288 290 290 290 295 294 293 294 295 295 295 296 296 297 295 294 295 295 295 295 296 296 294 295 297 296 296 297 297 297 298 299 300 302 303 304 305 304 303 304
288 287 287 287 287 286 287 288 290 293 294 295 295 295 295 296 295 294 294 295 294 295 294 294 294 294 294 294 293 293 294 292 292 294 294 295 297 297 300 301 301 300 301
288 288 285 285 285 285 286 286 287 287 288 291 292 292 292 291 290 290 291 292 292 291 291 291 291 290 291 291 291 292 291 291 291 291 292 292 293 293 293 292 293 294 296
289 288 286 285 285 285 286 286 286 286 287 288 286 286 287 287 287 287 288 289 289 288 288 289 290 290 290 290 290 291 290 290 290 291 291 292 292 292 292 292 292 294 291
289 288 287 286 285 284 285 285 286 286 286 286 285 285 286 286 286 286 286 287 287 287 287 287 288 288 289 291 289 289 288 288 288 289 291 291 293 295 294 292 291 291 290
291 290 289 287 285 284 284 286 286 286 286 285 285 286 285 286 285 286 286 286 286 286 287 287 287 287 289 293 293 291 288 288 288 288 289 290 292 291 293 293 294 293 290
292 290 289 288 286 285 285 285 285 286 285 285 285 286 286 285 285 285 285 285 284 284 284 285 285 285 286 292 293 293 289 287 287 287 287 288 290 290 289 291 293 293 294
294 292 290 289 287 286 285 285 285 285 285 285 285 286 286 285 285 284 284 284 284 283 284 284 285 285 286 292 292 292 290 286 286 287 288 289 289 290 290 290 290 290 291
294 293 292 289 286 285 285 285 285 285 285 285 285 285 285 285 284 284 283 283 283 283 283 284 284 283 284 291 291 291 288 287 287 286 287 287 289 291 292 290 289 289 290
294 292 290 288 286 285 285 284 284 283 283 285 285 286 286 285 283 283 282 283 283 284 284 284 283 286 283 289 290 290 288 286 286 287 287 290 289 291 292 290 289 287 289
294 291 289 288 287 285 284 284 283 283 285 286 286 286 285 284 284 283 283 283 282 282 281 282 282 282 284 284 289 290 287 286 286 286 285 287 290 291 291 292 290 290 292
292 290 287 286 286 285 285 284 283 285 286 286 285 285 284 284 284 282 282 282 281 280 280 280 281 282 282 287 287 289 289 289 285 284 285 287 290 290 290 290 292 292 294
291 291 288 287 286 285 286 284 284 285 285 284 283 283 283 283 283 282 281 281 280 279 279 279 279 280 282 282 287 288 288 288 286 286 287 289 289 289 288 289 290 290 290
290 290 288 287 286 285 286 285 285 285 284 283 282 282 281 281 282 282 282 281 279 279 280 280 280 281 283 283 283 285 285 286 286 286 286 287 286 286 286 285 286 286 287
290 289 289 288 287 285 285 285 285 285 283 282 282 281 281 281 280 281 281 281 281 282 280 283 283 282 282 283 286 286 285 285 285 286 284 282 282 282 282 282 283 283 284
291 289 289 289 288 286 286 285 285 284 283 282 281 281 281 280 280 280 280 286 287 287 287 287 286 285 286 287 287 287 287 287 286 283 280 280 280 280 280 280 281 282 283
Wind_Speed
9 9 11 10 12 12 12 12 13 15 12 3 4 3 5 4 5 4 9 6 6 7 6 4 4 4 5 5 6 4 5 3 3 1 3 5 7 7 7 5 5 6 8
8 11 10 9 9 10 10 13 11 12 12 9 4 4 4 4 8 6 6 6 6 5 5 5 4 4 2 3 5 5 3 4 4 3 1 4 4 6 9 9 11 14 9
8 9 11 10 10 13 14 14 12 11 11 13 7 4 2 3 4 4 3 6 5 5 6 6 4 2 2 3 4 4 5 4 3 6 5 3 6 2 4 9 10 11 10
5 8 9 8 9 12 12 13 15 13 12 12 8 7 4 6 4 5 3 5 7 9 3 5 4 2 2 4 4 4 5 4 8 4 8 12 4 6 8 3 5 10 12
7 8 8 6 7 12 14 14 14 13 13 11 8 6 6 4 4 4 5 4 4 6 4 6 5 4 3 4 5 5 6 7 9 8 7 8 9 11 11 12 8 4 8
9 8 6 5 6 7 10 11 13 13 11 11 11 7 8 7 5 3 4 3 3 4 8 8 8 6 6 5 5 6 9 9 10 9 9 10 9 8 9 11 12 12 11
7 6 4 4 7 10 9 10 12 12 12 10 9 7 5 4 4 4 1 3 5 5 8 9 6 6 6 6 6 7 7 8 9 10 9 9 10 10 10 9 10 10 5
6 6 2 4 6 7 9 10 11 11 11 10 9 7 8 6 7 8 6 6 5 5 8 6 5 6 5 5 6 5 6 9 6 8 8 7 7 7 7 6 3 3 3
6 5 3 3 4 6 8 9 10 11 11 10 8 7 7 8 7 8 6 6 4 4 5 6 5 4 4 6 5 4 7 7 7 7 10 8 6 5 4 2 2 0 2
6 5 4 3 4 4 4 7 8 8 9 10 8 7 7 6 6 6 7 4 4 3 5 6 4 5 5 6 6 6 6 6 5 4 7 7 6 5 5 6 6 4 5
6 5 5 5 6 4 5 4 5 7 7 7 7 7 7 7 6 6 5 5 5 4 6 6 5 5 4 4 8 7 7 7 6 7 7 7 7 5 4 3 4 4 3
7 6 6 5 3 2 1 2 2 2 1 5 5 5 5 5 5 5 5 4 4 4 5 6 5 4 4 6 6 6 6 7 7 8 7 6 6 6 7 6 7 6 4
7 6 5 5 4 2 0 1 3 4 5 3 3 5 6 6 6 5 4 4 4 5 5 5 5 5 6 5 5 6 6 7 7 7 7 8 7 5 4 4 4 4 4
8 7 5 6 5 4 3 2 1 2 3 4 4 5 5 5 5 5 5 5 4 5 5 5 4 5 4 4 4 5 5 6 6 6 5 5 5 6 6 4 4 4 4
8 8 8 7 7 6 5 4 3 2 0 2 3 4 4 4 4 5 5 5 6 5 5 5 4 4 3 2 3 3 4 5 6 6 6 5 8 11 9 5 5 5 3
10 9 9 8 8 8 7 6 5 4 3 2 2 1 3 3 3 4 4 5 5 5 6 6 6 6 4 5 7 7 3 5 5 5 5 5 8 7 14 15 15 12 8
10 10 10 10 9 8 7 7 6 3 2 1 2 3 4 5 6 6 6 7 6 6 6 5 5 5 5 8 9 11 4 6 7 7 8 9 6 10 8 13 16 13 16
9 9 8 8 8 7 7 6 6 5 4 3 1 0 1 3 4 5 4 5 3 4 4 5 6 5 5 10 8 11 5 5 7 8 9 10 10 10 14 11 10 11 10
9 8 9 7 8 9 8 8 7 6 6 5 4 4 2 1 2 3 3 3 2 3 3 4 6 5 6 8 9 9 9 9 10 6 7 8 10 16 19 12 11 12 12
6 7 8 6 9 8 8 8 8 7 7 6 6 4 3 2 2 3 3 2 2 4 4 5 5 7 4 7 10 10 7 10 9 11 7 13 15 20 21 13 12 12 12
6 5 7 10 11 9 8 8 7 8 7 6 6 5 4 3 3 2 1 2 3 4 5 5 5 4 5 5 12 13 8 8 8 9 11 10 22 24 25 24 13 14 16
3 6 7 8 8 8 10 8 8 7 7 6 6 5 3 3 2 2 3 3 3 3 4 4 4 3 4 10 11 15 15 14 7 9 10 11 24 27 26 20 21 23 21
6 6 7 7 7 8 10 9 7 7 7 6 5 4 3 3 1 1 2 2 2 2 3 3 3 3 3 4 12 15 16 16 11 8 14 23 22 24 17 21 23 20 9
7 6 7 8 8 7 9 8 7 7 7 7 6 5 4 3 2 1 1 0 1 2 2 3 3 5 7 5 5 8 7 12 12 14 9 14 17 18 16 15 13 8 8
6 6 10 10 11 9 8 7 7 8 7 6 5 5 4 4 3 3 3 2 3 4 3 3 3 5 7 6 15 14 9 9 13 14 6 6 7 8 8 9 11 10 9
6 7 9 9 8 10 10 9 9 9 7 6 5 4 4 3 2 2 1 4 4 6 8 9 7 5 12 15 17 19 18 19 19 7 6 7 7 8 8 8 9 9 12
Wind_Direction
335 346 343 338 339 336 350 352 339 336 322 281 245 245 242 258 261 241 247 251 218 203 182 191 200 193 185 201 206 201 213 254 220 219 265 250 235 237 241 239 238 251 243
328 331 322 336 329 324 336 337 333 327 319 313 259 216 191 225 250 239 222 229 256 229 174 162 177 188 199 227 206 198 209 221 192 217 257 279 285 243 234 226 233 240 233
325 334 333 329 333 335 333 323 316 312 306 297 298 263 272 303 270 267 236 209 218 240 226 186 141 197 177 220 221 215 238 241 229 203 216 267 235 273 233 232 233 236 237
318 311 309 316 326 328 322 320 316 312 303 303 307 270 218 233 239 236 232 217 199 174 222 68 66 347 299 260 244 235 225 207 253 231 226 243 226 264 278 243 240 237 238
288 280 274 276 303 328 322 321 309 308 309 295 291 276 258 235 236 256 196 225 148 104 75 77 59 26 336 279 253 261 246 234 241 238 237 237 242 240 248 269 252 240 236
270 286 290 294 297 314 325 321 319 317 321 323 313 279 252 248 251 255 252 195 142 90 61 38 30 1 0 339 322 296 271 254 247 246 244 242 245 238 233 243 253 253 253
284 298 333 330 314 317 323 332 336 336 339 340 1 25 33 14 339 344 160 68 75 67 47 49 18 17 356 345 336 313 302 275 252 249 245 240 238 242 249 249 256 248 235
273 288 312 312 308 322 328 339 346 346 349 354 3 35 48 59 59 43 65 73 67 65 61 65 45 16 359 341 348 1 358 341 335 326 306 272 250 240 246 231 219 264 232
254 263 222 321 317 316 332 339 348 355 359 360 5 26 55 66 76 73 66 71 60 72 73 64 58 35 17 351 349 9 9 352 356 1 5 350 1 321 305 331 284 286 306
255 251 231 242 264 295 326 350 354 4 3 1 14 16 27 60 78 87 90 87 84 75 74 72 58 44 21 3 13 12 7 360 351 355 7 358 357 7 2 9 357 313 279
234 220 225 229 250 269 295 294 353 11 7 6 6 19 28 40 50 58 59 55 59 53 51 41 44 25 20 31 40 3 8 2 346 357 7 2 357 353 346 357 356 341 1
206 201 210 222 264 225 103 17 32 48 19 8 9 7 26 40 52 58 42 37 43 52 64 41 12 23 24 52 41 15 3 351 349 352 356 350 356 348 349 7 9 359 355
194 186 183 207 204 204 46 80 46 12 16 52 347 18 33 33 38 38 40 34 36 33 34 38 40 20 39 45 31 19 2 354 343 343 346 342 349 351 341 340 338 329 339
207 198 197 207 202 205 207 166 114 29 9 43 48 32 26 32 28 25 26 28 28 37 27 29 35 20 33 54 35 15 353 339 341 330 324 327 347 334 322 321 332 318 299
215 207 206 205 203 199 202 191 185 186 27 59 43 19 13 21 22 20 17 16 22 17 11 13 15 19 11 80 14 3 343 329 322 317 317 324 319 318 325 324 299 280 260
223 214 206 197 199 198 199 199 196 199 173 143 126 81 38 26 18 15 10 17 10 5 8 7 4 356 338 335 344 347 300 303 308 309 306 297 304 322 329 319 310 303 307
219 212 203 193 193 192 184 192 193 189 156 107 35 32 24 10 357 356 3 1 357 360 352 346 346 328 321 323 334 339 350 340 327 325 325 320 319 321 309 310 307 302 296
226 219 194 193 184 175 176 164 166 173 180 190 204 111 39 6 357 358 356 345 338 342 337 328 329 326 314 329 338 332 347 319 305 299 305 304 305 307 306 292 287 280 275
232 217 194 175 158 164 168 162 178 183 186 205 199 179 173 223 325 335 319 310 315 319 312 306 315 316 306 323 336 331 319 310 307 280 276 281 290 296 304 302 293 290 285
253 206 178 153 157 180 162 163 186 186 200 200 190 183 183 205 277 288 302 297 315 305 319 318 325 319 334 335 334 329 310 309 310 310 284 293 305 307 310 306 298 287 284
260 164 162 174 183 165 160 181 186 201 200 175 173 178 190 213 247 260 262 293 308 319 315 323 329 336 340 334 335 325 316 313 313 312 312 310 312 312 310 307 298 289 292
227 187 165 180 181 169 167 184 199 198 175 171 174 188 203 232 239 234 268 292 290 313 308 324 333 329 330 337 326 326 321 318 317 309 308 304 308 313 313 310 302 310 303
225 192 196 192 196 179 180 185 203 173 168 171 184 192 204 203 189 195 249 284 314 332 317 335 317 305 308 303 318 325 325 325 316 308 306 313 317 317 317 314 314 320 310
225 202 190 202 206 192 191 191 171 169 168 178 183 182 176 192 200 179 251 184 285 311 312 308 314 322 325 322 296 326 320 316 319 318 309 319 318 318 316 319 320 312 309
241 198 203 206 209 178 186 182 177 165 173 176 183 187 182 182 201 209 214 216 255 205 237 308 307 310 315 317 323 327 322 320 321 326 325 316 318 319 318 323 319 319 309
246 225 217 213 205 185 186 182 175 170 166 177 183 188 181 186 182 192 302 328 356 349 325 311 303 302 311 318 324 324 329 336 331 337 318 320 320 319 318 319 316 310 313